This is the latest recevied weather packets stored in our database for station/object KY4OP-13. If no packets are shown the sender has not sent any weather packets the latest 10 day(s).
| Time | Temp. | Humidity | Pressure | Rain* | Wind** | Luminosity | Snow |
|---|---|---|---|---|---|---|---|
| 1777858284 | 8.33° C | 59% | 1017.1 hPa | 0 mm | - | - | - |
| 1777857981 | 8.33° C | 60% | 1017 hPa | 0 mm | - | - | - |
| 1777857679 | 8.33° C | 59% | 1017.1 hPa | 0 mm | - | - | - |
| 1777857376 | 8.33° C | 54% | 1016.9 hPa | 0 mm | - | - | - |
| 1777857072 | 8.89° C | 55% | 1017.2 hPa | 0 mm | - | - | - |
| 1777856768 | 9.44° C | 55% | 1017 hPa | 0 mm | - | - | - |
| 1777856464 | 9.44° C | 50% | 1017 hPa | 0 mm | - | - | - |
| 1777856161 | 10° C | 53% | 1016.8 hPa | 0 mm | - | - | - |
| 1777855858 | 10° C | 53% | 1016.7 hPa | 0 mm | - | - | - |
| 1777855556 | 10° C | 50% | 1016.9 hPa | 0 mm | - | - | - |
| 1777855253 | 10° C | 52% | 1016.8 hPa | 0 mm | - | - | - |
| 1777854949 | 10.56° C | 50% | 1016.7 hPa | 0 mm | - | - | - |
| 1777854646 | 10.56° C | 51% | 1016.6 hPa | 0 mm | - | - | - |
| 1777854342 | 10.56° C | 50% | 1016.6 hPa | 0 mm | - | - | - |
| 1777854040 | 11.11° C | 50% | 1016.4 hPa | 0 mm | - | - | - |
| 1777853738 | 11.11° C | 50% | 1016.5 hPa | 0 mm | - | - | - |
| 1777853434 | 11.67° C | 48% | 1016.5 hPa | 0 mm | - | - | - |
| 1777853131 | 12.22° C | 46% | 1016.7 hPa | 0 mm | - | - | - |
| 1777852828 | 12.78° C | 44% | 1016.6 hPa | 0 mm | - | - | - |
| 1777852527 | 12.78° C | 43% | 1016.3 hPa | 0 mm | - | - | - |
| 1777852223 | 13.33° C | 44% | 1016.4 hPa | 0 mm | - | - | - |
| 1777851921 | 13.33° C | 42% | 1016.5 hPa | 0 mm | - | - | - |
| 1777851619 | 13.89° C | 41% | 1016.5 hPa | 0 mm | - | - | - |
| 1777851315 | 14.44° C | 39% | 1016.5 hPa | 0 mm | - | - | - |
| 1777851011 | 14.44° C | 39% | 1016.4 hPa | 0 mm | - | - | - |
* Rain latest hour (hover to see other rain measurements)
** Current wind speed in m/s (hover to see current wind gust speed)